Home > Time Zones > World Clock > Weather > Spain > Lugo > Past weeks

Flag for Spain Weather past 2 weeks in Lugo, Galicia, Spain

Now
57 °F

Passing clouds.


Feels Like: 55 °F
Forecast: 53 / 77 °F
Wind: 8 mph from Northeast

Location: Santiago / Labacolla

Current Time: Jul 31, 2015 at 5:09:28 AM

Latest Report: Jul 31, 2015 at 4:30 AM


Visibility: N/A

Pressure: 29.89 "Hg

Humidity: 88%

Dew point: 54 °F

Location of LugoLocation

Historic Weather in Lugo — Graph

°F

Lugo temperature yesterday

Maximum temperature yesterday: 68 °F (at 2:00 PM)
Minimum temperature yesterday: 59 °F (at 3:30 AM)
Average temperature yesterday: 63 °F

Past Weeks' High & Low Weather Summary

 TemperatureHumidityPressure
High84 °F (Jul 17, 4:00 PM)100% (Jul 16, 4:00 AM)30.21 "Hg (Jul 16, 4:00 AM)
Low50 °F (Jul 25, 7:00 AM)39% (Jul 23, 3:00 PM)29.89 "Hg (Jul 31, 2:30 AM)
Average65 °F81%30.08 "Hg
* Reported Jul 16 4:00 AM — Jul 31 4:00 AM, Lugo, Weather by CustomWeather, © 2015

Note: Actual official high and low records may vary slightly from our data, if they occured in-between our weather recording intervals... More about our weather records

Advertising

Lugo weather history for previous 24 hours

 ConditionsComfort  
Time TempWeatherWind HumidityBarometerVisibility
4:00 AM
Fri, Jul 31
59 °FPassing clouds.8 mph82%29.89 "HgN/A
3:30 AM59 °FPassing clouds.9 mph82%29.89 "HgN/A
3:00 AM59 °FPassing clouds.8 mph82%29.89 "HgN/A
2:30 AM59 °FPassing clouds.5 mph82%29.89 "HgN/A
2:00 AM59 °FPassing clouds.5 mph82%29.92 "HgN/A
1:30 AM59 °FPassing clouds.5 mph82%29.92 "HgN/A
1:00 AM61 °FPassing clouds.7 mph77%29.92 "HgN/A
12:30 AM61 °FPassing clouds.6 mph77%29.92 "HgN/A
12:00 AM61 °FPassing clouds.7 mph83%29.92 "HgN/A
11:30 PM
Thu, Jul 30
61 °FPassing clouds.7 mph83%29.92 "HgN/A
11:00 PM61 °FPassing clouds.6 mph83%29.92 "HgN/A
10:30 PM61 °FPassing clouds.6 mph83%29.92 "HgN/A
10:00 PM61 °FPassing clouds.7 mph83%29.92 "HgN/A
9:30 PM63 °FScattered clouds.8 mph77%29.92 "HgN/A
9:00 PM63 °FScattered clouds.8 mph77%29.92 "HgN/A
8:30 PM64 °FScattered clouds.8 mph73%29.92 "HgN/A
8:00 PM64 °FScattered clouds.9 mph78%29.92 "HgN/A
7:30 PM66 °FScattered clouds.12 mph73%29.92 "HgN/A
7:00 PM68 °FBroken clouds.12 mph69%29.92 "HgN/A
6:30 PM68 °FBroken clouds.10 mph69%29.92 "HgN/A
6:00 PM68 °FBroken clouds.12 mph69%29.95 "HgN/A
5:30 PM68 °FBroken clouds.12 mph69%29.95 "HgN/A
5:00 PM68 °FPartly sunny.9 mph69%29.95 "HgN/A
4:30 PM68 °FPartly sunny.9 mph69%29.95 "HgN/A
4:00 PM68 °FOvercast.9 mph69%29.98 "HgN/A
3:30 PM68 °FOvercast.8 mph69%29.98 "HgN/A
3:00 PM68 °FMore clouds than sun.10 mph69%29.98 "HgN/A
2:30 PM68 °FPartly sunny.8 mph69%29.98 "HgN/A
2:00 PM68 °FPartly sunny.9 mph69%29.98 "HgN/A
1:30 PM66 °FOvercast.10 mph68%29.98 "HgN/A
1:00 PM66 °FPartly sunny.10 mph73%29.98 "HgN/A
12:30 PM64 °FPartly sunny.12 mph73%29.98 "HgN/A
12:00 PM64 °FOvercast.10 mph73%29.98 "HgN/A
11:30 AM63 °FOvercast.10 mph77%29.98 "HgN/A
11:00 AM63 °FOvercast.10 mph77%30.01 "HgN/A
10:30 AM63 °FOvercast.8 mph77%30.01 "HgN/A
10:00 AM61 °FOvercast.8 mph83%30.01 "HgN/A
9:30 AM61 °FOvercast.6 mph83%30.01 "HgN/A
9:00 AM59 °FOvercast.6 mph88%30.01 "HgN/A
8:30 AM59 °FOvercast.6 mph88%30.01 "HgN/A
8:00 AM59 °FPassing clouds.7 mph88%29.98 "HgN/A
7:30 AM59 °FMostly cloudy.9 mph88%29.98 "HgN/A
7:00 AM59 °FMostly cloudy.8 mph88%29.98 "HgN/A
6:30 AM59 °FPassing clouds.7 mph88%30.01 "HgN/A
6:00 AM59 °FPassing clouds.7 mph88%30.01 "HgN/A
5:30 AM59 °FPassing clouds.8 mph88%30.01 "HgN/A
5:00 AM59 °FPassing clouds.6 mph88%30.01 "HgN/A
Weather by CustomWeather, © 2015

See weather overviewHow to use our weather pages